Hurricane Symbol View the latest observations near Atlantic Tropical Storm Alberto.

Station ATKA2 - 9461710 - Atka, AK Image indicating link to RSS feed of recent meteorological observations for station ATKA2


Conditions at ATKA2 as of
(10:48 am HAST)
2048 GMT on 06/19/2024:
     

Click on the graph icon in the table below to see a time series plot of the last five days of that observation.

5-day plot - Wind Direction Wind Direction (WDIR): NW ( 310 deg true )
5-day plot - Wind Speed Wind Speed (WSPD): 7.0 kts
5-day plot - Wind Gust Wind Gust (GST): 9.9 kts
5-day plot - Atmospheric Pressure Atmospheric Pressure (PRES):29.82 in
5-day plot - Air Temperature Air Temperature (ATMP): 45.0 °F
5-day plot - Water Temperature Water Temperature (WTMP): 42.6 °F
5-day plot - Wind Chill Wind Chill (CHILL): 40.6 °F
5-day plot - Wind Speed at 10 Meters Wind Speed at 10 meters (WSPD10M): 7.8 kts
5-day plot - Wind Speed at 20 Meters Wind Speed at 20 meters (WSPD20M): 7.8 kts
5-day plot -  Wind Speed, Wind Gust and Atmospheric Pressure Combined plot of Wind Speed, Gust, and Air Pressure
NOS Water Level Observation Network Water Level
Previous observations
TIME
(HAST)
5-day plot - Wind Direction
WDIR
 
5-day plot - Wind Speed
WSPD
kts
5-day plot - Wind Gust
GST
kts
5-day plot - Wave Height
WVHT
ft
5-day plot - Dominant Wave Period
DPD
sec
5-day plot - Average Wave Period
APD
sec
5-day plot - Mean Wave Direction
MWD
 
5-day plot - Atmospheric Pressure
PRES
in
5-day plot - Pressure Tendency
PTDY
in
5-day plot - Air Temperature
ATMP
°F
5-day plot - Water Temperature
WTMP
°F
5-day plot - Dew Point
DEWP
°F
5-day plot - Salinity
SAL
psu
5-day plot - Visibility
VIS
nmi
5-day plot - Tide (above MLLW)
TIDE
ft
2024-06-19 10:42 am NW 8.9 9.9----29.82- 44.8 42.6----
2024-06-19 10:36 amWNW 8.9 9.9----29.83- 44.6 42.6----
2024-06-19 10:30 amWNW 8.9 11.1----29.83- 44.4 42.6----
2024-06-19 10:24 amWNW 8.9 9.9----29.83- 44.4 42.6----
2024-06-19 10:18 amWNW 8.0 9.9----29.83- 44.8 42.6----
2024-06-19 10:12 amWNW 8.0 8.9----29.83- 44.6 42.6----
2024-06-19 10:06 am NW 8.0 8.9----29.82- 44.6 42.6----
2024-06-19 10:00 am NW 8.0 8.9----29.82+0.01 44.6 42.6----
2024-06-19 09:54 am NW 8.0 9.9----29.82- 44.4 42.6----
2024-06-19 09:48 am NW 7.0 8.9----29.82- 44.4 42.4----
2024-06-19 09:42 amWNW 7.0 8.0----29.82- 44.4 42.4----
2024-06-19 09:36 amWNW 7.0 8.9----29.81- 44.4 42.4----
2024-06-19 09:30 amWNW 8.0 8.9----29.82- 44.1 42.4----
2024-06-19 09:24 amWNW 8.0 9.9----29.82- 44.1 42.4----
2024-06-19 09:18 amWNW 8.9 9.9----29.81- 43.9 42.4----
2024-06-19 09:12 amWNW 8.9 11.1----29.82- 44.1 42.4----
2024-06-19 09:06 amWNW 8.0 8.9----29.82- 44.1 42.4----
2024-06-19 09:00 amWNW 7.0 8.9----29.81+0.01 43.9 42.4----
2024-06-19 08:54 amWNW 8.0 8.9----29.81- 43.9 42.4----
2024-06-19 08:48 amWNW 8.0 8.9----29.81- 43.9 42.4----
2024-06-19 08:42 amWNW 7.0 8.9----29.81- 43.7 42.4----
2024-06-19 08:36 amWNW 7.0 8.0----29.81- 43.7 42.4----
2024-06-19 08:30 amWNW 6.0 8.0----29.81- 43.7 42.4----
2024-06-19 08:24 amWNW 6.0 8.9----29.81- 43.5 42.4----
2024-06-19 08:18 amWNW 7.0 8.9----29.81- 43.5 42.3----
2024-06-19 08:12 amWNW 7.0 8.9----29.81- 43.5 42.4----
2024-06-19 08:06 amWNW 8.0 8.9----29.81- 43.5 42.4----
2024-06-19 08:00 amWNW 8.0 9.9----29.81+0.00 43.3 42.4----
2024-06-19 07:54 amWNW 8.9 9.9----29.81- 43.3 42.4----
2024-06-19 07:48 amWNW 7.0 8.9----29.81- 43.2 42.4----
2024-06-19 07:42 amWNW 7.0 8.0----29.81- 43.3 42.4----
2024-06-19 07:36 amWNW 7.0 8.9----29.81- 43.3 42.4----
2024-06-19 07:30 am NW 7.0 8.9----29.81- 43.3 42.4----
2024-06-19 07:24 am NW 8.0 9.9----29.81- 43.0 42.3----
2024-06-19 07:18 am NW 8.0 8.9----29.81- 43.0 42.3----
2024-06-19 07:12 am NW 7.0 8.0----29.81- 42.8 42.3----
2024-06-19 07:06 amWNW 7.0 8.0----29.81- 43.0 42.3----
2024-06-19 07:00 am NW 5.1 8.0----29.80+0.00 43.0 42.3----
2024-06-19 06:54 am NW 7.0 8.9----29.80- 43.0 42.3----
2024-06-19 06:48 amWNW 8.0 8.9----29.80- 43.0 42.3----
2024-06-19 06:42 amWNW 6.0 8.0----29.80- 43.0 42.3----
2024-06-19 06:36 am NW 6.0 8.0----29.80- 43.0 42.3----
2024-06-19 06:30 am NW 7.0 8.0----29.80- 43.0 42.3----
2024-06-19 06:24 amWNW 6.0 8.9----29.80- 43.0 42.3----
2024-06-19 06:18 amWNW 7.0 7.0----29.80- 42.8 42.3----
2024-06-19 06:12 amWNW 7.0 8.0----29.80- 42.8 42.3----
2024-06-19 06:06 amWNW 8.0 8.9----29.80- 42.8 42.3----
2024-06-19 06:00 am NW 6.0 8.0----29.80+0.00 42.8 42.3----
2024-06-19 05:54 am NW 6.0 8.0----29.80- 42.8 42.3----
2024-06-19 05:48 am NW 8.0 8.9----29.80- 42.8 42.3----
2024-06-19 05:42 am NW 8.0 8.9----29.80- 42.8 42.3----
2024-06-19 05:36 am NW 5.1 7.0----29.80- 43.0 42.3----
2024-06-19 05:30 amNNW 4.1 5.1----29.80- 42.8 42.3----
2024-06-19 05:24 am NW 4.1 6.0----29.80- 42.8 42.3----
2024-06-19 05:18 am NW 5.1 7.0----29.80- 42.8 42.3----
2024-06-19 05:12 amWNW 6.0 7.0----29.80- 42.6 42.3----
2024-06-19 05:06 am NW 5.1 7.0----29.80- 42.8 42.3----
2024-06-19 05:00 am NW 5.1 6.0----29.80+0.00 42.8 42.3----
2024-06-19 04:54 am NW 6.0 8.0----29.80- 42.8 42.3----
2024-06-19 04:48 am NW 6.0 8.9----29.80- 42.8 42.3----
2024-06-19 04:42 am NW 6.0 8.0----29.80- 42.8 42.3----
2024-06-19 04:36 am NW 6.0 8.0----29.80- 42.8 42.3----
2024-06-19 04:30 am NW 6.0 7.0----29.80- 42.8 42.3----
2024-06-19 04:24 am NW 5.1 7.0----29.80- 42.8 42.3----
2024-06-19 04:18 am NW 5.1 7.0----29.80- 43.0 42.3----
2024-06-19 04:12 amWNW 2.9 5.1----29.80- 43.0 42.3----
2024-06-19 04:06 am NW 5.1 6.0----29.80- 43.0 42.3----
2024-06-19 04:00 am NW 5.1 5.1----29.80+0.00 43.0 42.3----
2024-06-19 03:54 am NW 4.1 6.0----29.80- 43.0 42.3----
2024-06-19 03:48 am NW 5.1 6.0----29.80- 43.0 42.3----
2024-06-19 03:42 am NW 5.1 6.0----29.80- 43.0 42.3----
2024-06-19 03:36 amNNW 5.1 6.0----29.80- 42.8 42.3----
2024-06-19 03:30 amNNW 5.1 7.0----29.80- 43.0 42.3----
2024-06-19 03:24 amNNW 6.0 7.0----29.80- 42.8 42.3----
2024-06-19 03:18 amNNW 5.1 6.0----29.80- 43.0 42.3----
2024-06-19 03:12 am NW 4.1 5.1----29.80- 43.0 42.3----
2024-06-19 03:06 am NW 4.1 5.1----29.80- 42.8 42.3----
2024-06-19 03:00 am NW 2.9 5.1----29.80+0.00 42.8 42.4----
2024-06-19 02:54 am NW 2.9 6.0----29.80- 42.8 42.4----
2024-06-19 02:48 am NW 5.1 7.0----29.80- 42.8 42.4----
2024-06-19 02:42 amWNW 6.0 7.0----29.80- 42.8 42.4----
2024-06-19 02:36 amWNW 6.0 8.0----29.80- 43.0 42.4----
2024-06-19 02:30 am NW 5.1 7.0----29.80- 43.0 42.4----
2024-06-19 02:24 amWNW 6.0 7.0----29.80- 43.0 42.4----
2024-06-19 02:18 am NW 5.1 8.0----29.80- 43.0 42.4----
2024-06-19 02:12 am NW 6.0 8.0----29.80- 43.0 42.4----
2024-06-19 02:06 am NW 8.0 8.9----29.80- 43.2 42.4----
2024-06-19 02:00 amWNW 6.0 7.0----29.80+0.00 43.2 42.4----
2024-06-19 01:54 am NW 5.1 8.0----29.80- 43.2 42.4----
2024-06-19 01:48 am NW 7.0 7.0----29.80-- 42.4----
2024-06-19 01:42 am NW 5.1 7.0----29.80-- 42.4----
2024-06-19 01:36 am NW 4.1 7.0----29.80-- 42.6----
2024-06-19 01:30 amWNW 6.0 7.0----29.80- 43.3 42.6----
2024-06-19 01:24 amWNW 5.1 6.0----29.80- 43.2 42.6----
2024-06-19 01:18 amWNW 5.1 7.0----29.80- 43.3 42.6----
2024-06-19 01:12 amWNW 6.0 8.0----29.80- 43.3 42.6----
2024-06-19 01:06 amWNW 6.0 8.9----29.80- 43.3 42.6----
2024-06-19 01:00 am NW 8.0 8.9----29.80+0.01 43.3 42.4----
2024-06-19 12:54 am NW 6.0 7.0----29.80- 43.3 42.3----
2024-06-19 12:48 am NW 4.1 5.1----29.80- 43.3 42.3----
2024-06-19 12:42 am NW 2.9 4.1----29.80- 43.3 42.3----
2024-06-19 12:36 am NW 4.1 5.1----29.80- 43.3 42.3----
2024-06-19 12:30 am NW 5.1 6.0----29.80- 43.3 42.3----
2024-06-19 12:24 am NW 4.1 6.0----29.80- 43.3 42.3----
2024-06-19 12:18 am NW 4.1 5.1----29.80- 43.3 42.3----
2024-06-19 12:12 amNNW 4.1 5.1----29.80- 43.3 42.3----
2024-06-19 12:06 am NW 2.9 5.1----29.80- 43.3 42.3----
2024-06-19 12:00 am NW 4.1 7.0----29.80+0.01 43.3 42.3----
2024-06-18 11:54 pm NW 5.1 7.0----29.80- 43.3 42.3----
2024-06-18 11:48 pm NW 5.1 6.0----29.80- 43.3 42.3----
2024-06-18 11:42 pm NW 5.1 7.0----29.80- 43.3 42.3----
2024-06-18 11:36 pm NW 7.0 8.0----29.81- 43.3 42.3----
2024-06-18 11:30 pm NW 7.0 8.0----29.81- 43.3 42.3----
2024-06-18 11:24 pm NW 7.0 8.0----29.80- 43.5 42.3----
2024-06-18 11:18 pm NW 4.1 5.1----29.80- 43.5 42.3----
2024-06-18 11:12 pm NW 5.1 7.0----29.80- 43.3 42.3----
2024-06-18 11:06 pmWNW 7.0 8.0----29.80- 43.5 42.3----
2024-06-18 11:00 pm NW 5.1 7.0----29.80+0.02 43.5 42.3----
2024-06-18 10:54 pm NW 5.1 7.0----29.80- 43.5 42.3----
2024-06-18 10:48 pm NW 6.0 7.0----29.80- 43.5 42.3----
2024-06-18 10:42 pm NW 5.1 6.0----29.80- 43.5 42.3----
2024-06-18 10:36 pm NW 4.1 5.1----29.80- 43.7 42.3----
2024-06-18 10:30 pmWNW 5.1 7.0----29.80- 43.5 42.3----
2024-06-18 10:24 pmWNW 6.0 7.0----29.80- 43.5 42.3----
2024-06-18 10:18 pm NW 5.1 8.0----29.80- 43.5 42.3----
2024-06-18 10:12 pmNNW 7.0 8.9----29.80- 43.3 42.1----
2024-06-18 10:06 pm NW 7.0 8.0----29.80- 43.3 42.1----
2024-06-18 10:00 pm NW 8.0 9.9----29.79+0.01 43.3 42.1----
2024-06-18 09:54 pm NW 7.0 9.9----29.79- 43.3 42.1----
2024-06-18 09:48 pm NW 7.0 11.1----29.79- 43.3 42.3----
2024-06-18 09:42 pmWNW 8.9 11.1----29.79- 43.2 42.3----
2024-06-18 09:36 pm NW 7.0 8.9----29.79- 43.3 42.3----
2024-06-18 09:30 pmWNW 7.0 8.0----29.79- 43.5 42.3----
2024-06-18 09:24 pmWNW 6.0 7.0----29.79- 43.5 42.3----
2024-06-18 09:18 pm NW 6.0 7.0----29.79- 43.7 42.3----
2024-06-18 09:12 pm NW 6.0 7.0----29.79- 43.7 42.3----
2024-06-18 09:06 pm NW 5.1 8.0----29.79- 43.7 42.3----
2024-06-18 09:00 pmWNW 7.0 8.0----29.79+0.02 43.7 42.3----
2024-06-18 08:54 pmWNW 5.1 7.0----29.79- 43.7 42.3----
2024-06-18 08:48 pm NW 4.1 6.0----29.79- 43.9 42.3----
2024-06-18 08:42 pmWNW 5.1 8.0----29.79- 43.9 42.3----
2024-06-18 08:36 pmWNW 5.1 7.0----29.79- 43.9 42.3----
2024-06-18 08:30 pmWNW 5.1 6.0----29.79- 43.9 42.3----
2024-06-18 08:24 pmWNW 2.9 5.1----29.79- 43.9 42.3----
2024-06-18 08:18 pm W 4.1 6.0----29.79- 43.7 42.3----
2024-06-18 08:12 pm W 5.1 6.0----29.78- 43.9 42.1----
2024-06-18 08:06 pm W 5.1 6.0----29.78- 43.9 42.1----
2024-06-18 08:00 pmWNW 2.9 5.1----29.78+0.01 44.1 42.1----
2024-06-18 07:54 pmWNW 4.1 7.0----29.78- 44.1 42.1----
2024-06-18 07:48 pmWNW 4.1 5.1----29.78- 44.1 42.3----
2024-06-18 07:42 pmWNW 1.9 2.9----29.78- 43.9 42.3----
2024-06-18 07:36 pm NW 1.0 2.9----29.78- 43.5 42.3----
2024-06-18 07:30 pm- 0.0 1.9----29.78-- 42.3----
2024-06-18 07:24 pmSSW 1.0 1.9----29.78-- 42.3----
2024-06-18 07:18 pm- 0.0 2.9----29.78- 43.0 42.3----
2024-06-18 07:12 pmSSE 1.9 2.9----29.78- 43.0 42.3----
2024-06-18 07:06 pm SE 1.0 1.9----29.78- 43.0 42.3----
2024-06-18 07:00 pmSSE 1.9 4.1----29.78+0.01 42.8 42.3----
2024-06-18 06:54 pm SE 2.9 2.9----29.78- 42.8 42.3----
2024-06-18 06:48 pm SE 2.9 5.1----29.78- 42.6 42.3----
2024-06-18 06:42 pmSSE 2.9 5.1----29.78- 42.6 42.3----
2024-06-18 06:36 pmSSE 2.9 4.1----29.78- 42.8 42.3----
2024-06-18 06:30 pmSSE 4.1 6.0----29.78- 42.6 42.3----
2024-06-18 06:24 pmSSE 5.1 6.0----29.78- 42.6 42.3----
2024-06-18 06:18 pmSSE 5.1 7.0----29.78- 42.8 42.1----
2024-06-18 06:12 pmSSE 6.0 8.0----29.78- 43.2 42.1----
2024-06-18 06:06 pm SW 6.0 9.9----29.78- 44.8 42.1----
2024-06-18 06:00 pm NW 8.0 8.9----29.77+0.00 45.1 42.3----
2024-06-18 05:54 pm NW 7.0 9.9----29.77- 45.1 42.3----
2024-06-18 05:48 pm NW 5.1 7.0----29.77- 45.5 42.4----
2024-06-18 05:42 pmWNW 1.9 1.9----29.77- 46.0 42.4----
2024-06-18 05:36 pm- 0.0 1.9----29.77- 45.5 42.3----
2024-06-18 05:30 pm S 1.9 1.9----29.77- 45.7 42.3----
2024-06-18 05:24 pmSSE 1.9 1.9----29.77- 45.9 42.3----
2024-06-18 05:18 pmSSE 1.9 1.9----29.77- 46.0 42.1----
2024-06-18 05:12 pm SE 1.9 4.1----29.77- 46.0 42.3----
2024-06-18 05:06 pm SE 4.1 5.1----29.77- 46.0 42.6----
2024-06-18 05:00 pm SE 4.1 6.0----29.77+0.00 46.0 42.6----
2024-06-18 04:54 pm SE 5.1 6.0----29.77- 46.0 42.6----
2024-06-18 04:48 pm SE 4.1 7.0----29.77- 46.0 42.6----
2024-06-18 04:42 pm W 2.9 8.0----29.77- 47.3 42.6----
2024-06-18 04:36 pm NW 7.0 8.0----29.77- 47.3 42.6----
2024-06-18 04:30 pmWNW 7.0 8.0----29.77- 47.1 42.6----
2024-06-18 04:24 pm NW 8.0 9.9----29.77- 46.6 42.6----
2024-06-18 04:18 pm NW 8.0 9.9----29.77- 46.0 42.6----
2024-06-18 04:12 pmWNW 8.0 11.1----29.77- 46.0 42.6----
2024-06-18 04:06 pmWNW 8.9 12.0----29.77- 46.0 42.6----
2024-06-18 04:00 pmWNW 9.9 11.1----29.77+0.00 46.4 42.6----
2024-06-18 03:54 pmWNW 8.0 9.9----29.77- 46.8 42.6----
2024-06-18 03:48 pmWNW 8.0 11.1----29.77- 46.4 42.6----
2024-06-18 03:42 pmWNW 8.9 12.0----29.78- 45.9 42.6----
2024-06-18 03:36 pmWNW 9.9 12.0----29.78- 45.5 42.6----
2024-06-18 03:30 pmWNW 12.0 14.0----29.78- 45.1 42.6----
2024-06-18 03:24 pmWNW 12.0 14.0----29.78- 44.8 42.6----
2024-06-18 03:18 pmWNW 12.0 14.0----29.78- 45.1 42.6----
2024-06-18 03:12 pmWNW 11.1 13.0----29.78- 45.7 42.6----
2024-06-18 03:06 pmWNW 9.9 12.0----29.78- 45.3 42.4----
2024-06-18 03:00 pmWNW 11.1 12.0----29.78+0.00 45.3 42.6----
2024-06-18 02:54 pm NW 9.9 11.1----29.78- 45.3 42.6----
2024-06-18 02:48 pm NW 9.9 13.0----29.77- 45.7 42.6----
2024-06-18 02:42 pm NW 9.9 12.0----29.78- 45.9 42.6----
2024-06-18 02:36 pm NW 11.1 12.0----29.77- 45.5 42.3----
2024-06-18 02:30 pmWNW 11.1 12.0----29.78- 45.7 42.1----
2024-06-18 02:24 pmWNW 9.9 11.1----29.78- 45.3 42.1----
2024-06-18 02:18 pmWNW 8.9 11.1----29.78- 45.1 42.1----
2024-06-18 02:12 pmWNW 9.9 11.1----29.78- 45.1 42.1----
2024-06-18 02:06 pmWNW 8.9 11.1----29.78- 45.3 42.1----
2024-06-18 02:00 pmWNW 9.9 9.9----29.78+0.00 45.3 42.1----
2024-06-18 01:54 pmWNW 8.0 9.9----29.78- 45.7 42.1----
2024-06-18 01:48 pmWNW 8.0 8.9----29.78- 45.7 42.4----
2024-06-18 01:42 pm NW 7.0 8.9----29.77- 45.9 42.4----
2024-06-18 01:36 pmWNW 7.0 8.0----29.77- 46.0 42.4----
2024-06-18 01:30 pmWNW 7.0 8.0----29.77- 45.9 42.4----
2024-06-18 01:24 pmWNW 7.0 8.9----29.77- 46.0 42.4----
2024-06-18 01:18 pm NW 7.0 8.9----29.77- 45.9 42.1----
2024-06-18 01:12 pmWNW 7.0 8.9----29.78- 45.9 42.3----
2024-06-18 01:06 pmWNW 7.0 8.9----29.78- 45.9 42.3----
2024-06-18 01:00 pmWNW 8.0 8.9----29.78+0.00 45.5 42.3----
2024-06-18 12:54 pmWNW 8.9 9.9----29.78- 45.5 42.3----
2024-06-18 12:48 pmWNW 7.0 8.9----29.78- 45.5 42.3----
2024-06-18 12:42 pmWNW 8.0 8.9----29.78- 45.1 42.3----
2024-06-18 12:36 pm W 7.0 8.0----29.78- 45.7 42.3----
2024-06-18 12:30 pm W 7.0 8.0----29.78- 45.5 42.3----
2024-06-18 12:24 pmWNW 6.0 8.0----29.78- 45.7 42.3----
2024-06-18 12:18 pmWNW 6.0 8.0----29.78- 45.7 42.3----
2024-06-18 12:12 pm NW 5.1 8.0----29.78- 45.7 42.3----
2024-06-18 12:06 pm NW 6.0 7.0----29.78- 45.5 42.3----
2024-06-18 12:00 pm NW 6.0 8.0----29.77+0.00 45.3 42.3----
2024-06-18 11:54 amWNW 6.0 7.0----29.77- 45.1 42.4----
2024-06-18 11:48 am NW 6.0 8.0----29.77- 45.0 42.3----
2024-06-18 11:42 am NW 6.0 8.0----29.77- 44.8 42.3----
2024-06-18 11:36 amWNW 6.0 8.0----29.77- 44.6 42.3----
2024-06-18 11:30 am NW 6.0 8.0----29.77- 44.4 42.3----
2024-06-18 11:24 am NW 7.0 8.0----29.77- 44.4 42.3----
2024-06-18 11:18 am NW 6.0 8.0----29.77- 44.4 42.3----
2024-06-18 11:12 am NW 7.0 8.0----29.77- 44.4 42.3----
2024-06-18 11:06 am NW 7.0 8.0----29.77- 44.4 42.3----
2024-06-18 11:00 am NW 7.0 8.9----29.77+0.01 44.4 42.3----
2024-06-18 10:54 am NW 8.0 8.9----29.77- 44.4 42.3----